EW3079 Weather Reports


time (UTC)temp
F
wind
direction
speed
knots
gust
knots
rain 1hr
in
rain 24hr
in
rain mn
in
humidity
%
barometer
mb
20260505100122 58 231 0.9 1.7 0.00 0.00 0.00 76 1008.1
20260505095123 58 232 0.0 0.9 0.00 0.00 0.00 76 1008.1
20260505094122 58 229 0.0 2.6 0.00 0.00 0.00 76 1008.2
20260505093122 58 236 0.0 1.7 0.00 0.00 0.00 76 1008.0
20260505092122 58 270 0.0 0.0 0.00 0.00 0.00 76 1008.2
20260505091122 58 225 0.0 0.0 0.00 0.00 0.00 75 1008.2
20260505090122 58 90 0.0 0.0 0.00 0.00 0.00 75 1008.0
20260505085122 59 225 0.0 0.0 0.00 0.00 0.00 75 1008.0
20260505084122 59 74 0.0 1.7 0.00 0.00 0.00 74 1008.0
20260505083122 59 103 0.0 1.7 0.00 0.00 0.00 74 1007.9
20260505082122 59 90 0.0 0.0 0.00 0.00 0.00 74 1007.7
20260505081122 59 23 0.0 0.0 0.00 0.00 0.00 74 1007.7
20260505080123 59 225 0.0 0.0 0.00 0.00 0.00 74 1007.8
20260505075123 59 225 0.0 0.0 0.00 0.00 0.00 74 1007.7
20260505074143 59 225 0.0 0.0 0.00 0.00 0.00 74 1007.7
20260505073122 59 225 0.0 0.0 0.00 0.00 0.00 74 1007.6
20260505072122 59 113 0.0 0.0 0.00 0.00 0.00 73 1007.6
20260505071122 59 135 0.0 0.0 0.00 0.00 0.00 72 1007.6
20260505070122 60 23 0.0 0.0 0.00 0.00 0.00 72 1007.6
20260505065143 60 113 0.0 0.0 0.00 0.00 0.00 71 1007.7
20260505064122 60 202 0.0 0.9 0.00 0.00 0.00 71 1007.9
20260505063143 60 214 0.0 0.9 0.00 0.00 0.00 71 1008.0
20260505062122 60 220 0.9 2.6 0.00 0.00 0.00 71 1008.0
20260505061143 60 208 0.9 2.6 0.00 0.00 0.00 71 1008.0
20260505060122 60 228 0.0 1.7 0.00 0.00 0.00 71 1008.0
20260505055143 60 225 0.0 0.0 0.00 0.00 0.00 71 1008.0
20260505054143 60 227 0.0 1.7 0.00 0.00 0.00 71 1008.2
20260505053122 59 233 0.9 2.6 0.00 0.00 0.00 72 1008.1
20260505052123 59 237 0.0 1.7 0.00 0.00 0.00 72 1008.1
20260505051122 59 225 0.0 2.6 0.00 0.00 0.00 72 1008.1
20260505050123 59 229 0.9 1.7 0.00 0.00 0.00 72 1008.2
20260505041122 58 83 0.0 0.9 0.00 0.00 0.00 71 1007.9
20260505040122 58 68 0.0 0.9 0.00 0.00 0.00 71 1007.9
20260505035123 58 158 0.0 0.0 0.00 0.00 0.00 71 1007.8
20260505034122 58 68 0.0 0.0 0.00 0.00 0.00 71 1007.7
20260505033122 59 90 0.0 0.0 0.00 0.00 0.00 70 1007.7
20260505032126 59 338 0.0 0.0 0.00 0.00 0.00 69 1007.7
20260505031143 59 113 0.0 0.0 0.00 0.00 0.00 69 1007.7
20260505030143 59 23 0.0 0.0 0.00 0.00 0.00 68 1007.6
20260505025122 60 113 0.0 0.0 0.00 0.00 0.00 68 1008.0
20260505024122 59 113 0.0 0.0 0.00 0.00 0.00 68 1007.9
20260505023122 60 120 0.0 0.9 0.00 0.00 0.00 67 1007.9
20260505022123 60 59 0.0 1.7 0.00 0.00 0.00 66 1007.7
20260505021122 60 113 0.0 0.0 0.00 0.00 0.00 65 1007.7
20260505020122 61 24 0.0 1.7 0.00 0.00 0.00 65 1007.7
20260505015143 61 76 0.0 1.7 0.00 0.00 0.00 64 1007.7
20260505014123 61 56 0.0 1.7 0.00 0.00 0.00 64 1007.8
20260505013122 62 68 0.0 1.7 0.00 0.00 0.00 63 1007.8
20260505012126 62 17 0.0 0.9 0.00 0.00 0.00 62 1007.5
20260505011127 62 26 0.0 2.6 0.00 0.00 0.00 62 1007.5
20260505010122 63 333 0.9 2.6 0.00 0.00 0.00 62 1007.4
20260505005122 63 338 0.9 2.6 0.00 0.00 0.00 60 1007.3
20260505004143 64 349 0.9 3.5 0.00 0.00 0.00 60 1007.3
20260505003122 64 34 0.9 2.6 0.00 0.00 0.00 60 1007.3
20260505002123 65 313 0.0 1.7 0.00 0.00 0.00 59 1007.1
20260505001143 65 271 0.9 3.5 0.00 0.00 0.00 58 1007.1
20260505000147 66 338 0.9 2.6 0.00 0.00 0.00 57 1006.9
20260504235122 67 351 0.9 1.7 0.00 0.00 0.00 56 1006.8
20260504234122 68 16 0.9 1.7 0.00 0.00 0.00 55 1006.9
20260504233123 69 249 1.7 2.6 0.00 0.00 0.00 53 1006.8
20260504232122 70 273 0.9 2.6 0.00 0.00 0.00 51 1006.9
20260504231122 71 110 1.7 3.5 0.00 0.00 0.00 50 1006.9
20260504230122 73 137 0.9 2.6 0.00 0.00 0.00 49 1006.9
20260504225147 73 259 0.9 3.5 0.00 0.00 0.00 49 1007.0
20260504224122 73 247 1.7 4.3 0.00 0.00 0.00 45 1007.0
20260504223122 74 234 2.6 5.2 0.00 0.00 0.00 46 1006.9
20260504222122 74 241 3.5 6.1 0.00 0.00 0.00 45 1006.9
20260504221125 74 242 2.6 5.2 0.00 0.00 0.00 44 1006.9
20260504220122 74 229 2.6 5.2 0.00 0.00 0.00 45 1006.9
20260504215143 74 243 2.6 6.1 0.00 0.00 0.00 44 1007.1
20260504214126 75 238 2.6 4.3 0.00 0.00 0.00 44 1006.9
20260504213122 76 212 2.6 5.2 0.00 0.00 0.00 43 1007.0
20260504212125 76 237 3.5 5.2 0.00 0.00 0.00 42 1007.1
20260504211143 76 214 2.6 5.2 0.00 0.00 0.00 42 1007.1
20260504210143 76 250 2.6 5.2 0.00 0.00 0.00 42 1007.0
20260504205126 75 228 3.5 7.0 0.00 0.00 0.00 42 1007.1
20260504204122 76 243 3.5 5.2 0.00 0.00 0.00 43 1007.2
20260504203143 76 230 2.6 4.3 0.00 0.00 0.00 43 1007.3
20260504202122 75 243 4.3 6.1 0.00 0.00 0.00 42 1007.4
20260504201122 75 250 3.5 7.0 0.00 0.00 0.00 42 1007.4
20260504200122 75 249 3.5 6.1 0.00 0.00 0.00 43 1007.5
20260504195122 74 227 4.3 7.0 0.00 0.00 0.00 43 1007.8
20260504194122 74 235 4.3 6.1 0.00 0.00 0.00 44 1008.1
20260504193122 75 231 3.5 5.2 0.00 0.00 0.00 43 1008.3
20260504192143 74 237 4.3 5.2 0.00 0.00 0.00 44 1008.3
20260504191126 74 236 3.5 7.0 0.00 0.00 0.00 44 1008.3
20260504190124 74 258 3.5 6.1 0.00 0.00 0.00 44 1008.6
20260504185146 73 244 4.3 7.0 0.00 0.00 0.00 44 1008.8
20260504184125 73 224 2.6 7.8 0.00 0.00 0.00 45 1008.9
20260504183126 73 237 3.5 6.1 0.00 0.00 0.00 44 1009.1
20260504182146 73 243 3.5 5.2 0.00 0.00 0.00 43 1009.0
20260504181125 73 252 2.6 5.2 0.00 0.00 0.00 44 1009.0
20260504180146 72 248 4.3 7.0 0.00 0.00 0.00 45 1009.2
20260504175126 72 243 4.3 6.1 0.00 0.00 0.00 44 1009.3
20260504174146 71 224 3.5 6.1 0.00 0.00 0.00 46 1009.4
20260504173126 72 255 3.5 6.1 0.00 0.00 0.00 46 1009.6
20260504172126 71 234 3.5 7.0 0.00 0.00 0.00 46 1009.9
20260504171125 70 245 3.5 6.1 0.00 0.00 0.00 44 1009.9
20260504170122 69 239 3.5 5.2 0.00 0.00 0.00 45 1010.1
20260504160143 68 265 2.6 4.3 0.00 0.00 0.00 47 1010.8
20260504151122 65 237 2.6 4.3 0.00 0.00 0.00 48 1011.2
20260504150122 64 240 3.5 7.0 0.00 0.00 0.00 47 1011.4
20260504141122 61 239 2.6 4.3 0.00 0.00 0.00 52 1011.7
20260504140143 60 267 2.6 4.3 0.00 0.00 0.00 53 1011.7
20260504130122 54 252 0.9 1.7 0.00 0.00 0.00 65 1011.9
20260504120122 48 225 0.0 1.7 0.00 0.00 0.00 70 1012.0
20260504110122 42 68 0.0 0.0 0.00 0.00 0.00 77 1012.0